Home   Weather   Molde   Past weeks

Flag for Norway Past Weather in Molde, Norway — Yesterday and Last 2 Weeks

Now
59 °F

Clear.


Feels Like: 57 °F
Forecast: 52 / 62 °F
Wind: 10 mph from Northeast

Location: Aro

Current Time: Sep 25, 2016 at 11:02:07 PM

Latest Report: Sep 25, 2016 at 10:20 PM


Visibility: 10 mi

Pressure: 29.77 "Hg

Humidity: 59%

Dew Point: 45 °F

Location of MoldeLocation

Past Weather in Molde — Graph

°F

Molde Temperature Yesterday

Maximum temperature yesterday: 57 °F (at 3:20 PM)
Minimum temperature yesterday: 45 °F (at 12:50 AM)
Average temperature yesterday: 52 °F

High & Low Weather Summary for the Past Weeks

 TemperatureHumidityPressure
High70 °F (Sep 13, 2:50 PM)100% (Sep 14, 10:20 PM)30.18 "Hg (Sep 14, 10:20 PM)
Low45 °F (Sep 24, 12:50 AM)52% (Sep 11, 3:50 PM)29.62 "Hg (Sep 11, 6:20 AM)
Average58 °F86%30.02 "Hg
* Reported Sep 11 4:20 AM — Sep 25 9:50 PM, Molde, Weather by CustomWeather, © 2016

Note: Actual official high and low records may vary slightly from our data, if they occured in-between our weather recording intervals... More about our weather records

Advertising

Molde Weather History for the Previous 24 Hours

Scroll right to see more
 ConditionsComfort  
Time TempWeatherWind HumidityBarometerVisibility
9:50 PM
Sun, Sep 25
59 °FClear.10 mph59%29.77 "Hg10 mi
9:20 PM57 °FClear.8 mph67%29.77 "Hg10 mi
8:50 PM57 °FPassing clouds.5 mph67%29.77 "HgN/A
8:20 PM59 °FClear.9 mph63%29.77 "Hg10 mi
7:50 PM61 °FClear.9 mph68%29.77 "Hg10 mi
7:20 PM63 °FClear.8 mph59%29.77 "Hg10 mi
6:50 PM64 °FSunny.6 mph60%29.77 "Hg10 mi
6:20 PM66 °FSunny.7 mph60%29.77 "Hg10 mi
5:50 PM66 °FSunny.10 mph60%29.77 "Hg10 mi
5:20 PM66 °FSunny.9 mph64%29.77 "Hg10 mi
4:50 PM68 °FSunny.8 mph60%29.77 "Hg10 mi
4:20 PM66 °FSunny.9 mph68%29.77 "Hg10 mi
3:50 PM66 °FSunny.8 mph68%29.77 "Hg10 mi
3:20 PM64 °FSunny.10 mph68%29.77 "Hg10 mi
2:50 PM64 °FSunny.12 mph73%29.77 "Hg10 mi
2:20 PM63 °FSunny.9 mph77%29.80 "Hg10 mi
1:50 PM63 °FPassing clouds.6 mph77%29.80 "HgN/A
1:20 PM61 °FPassing clouds.6 mph77%29.80 "HgN/A
12:50 PM61 °FSunny.7 mph83%29.80 "Hg10 mi
12:20 PM61 °FSunny.6 mph77%29.80 "Hg10 mi
11:50 AM59 °FPassing clouds.3 mph82%29.80 "HgN/A
11:20 AM57 °FSunny.8 mph88%29.77 "Hg10 mi
10:50 AM57 °FSunny.8 mph88%29.80 "Hg10 mi
10:20 AM57 °FSunny.7 mph77%29.77 "Hg10 mi
9:50 AM55 °FClear.8 mph88%29.77 "HgN/A
9:20 AM55 °FClear.8 mph82%29.77 "HgN/A
8:50 AM55 °FClear.8 mph82%29.77 "HgN/A
8:20 AM54 °FClear.6 mph88%29.77 "HgN/A
7:50 AM54 °FCool.8 mph82%29.74 "HgN/A
7:20 AM54 °FClear.7 mph82%29.74 "HgN/A
6:50 AM54 °FClear.8 mph88%29.77 "HgN/A
6:20 AM54 °FClear.8 mph82%29.77 "HgN/A
5:50 AM54 °FCool.7 mph82%29.77 "HgN/A
5:20 AM54 °FCool.9 mph88%29.77 "HgN/A
4:50 AM54 °FCool.7 mph82%29.77 "HgN/A
4:20 AM55 °FCool.7 mph77%29.77 "HgN/A
3:50 AM55 °FClear.9 mph82%29.77 "HgN/A
3:20 AM54 °FClear.8 mph88%29.77 "HgN/A
2:50 AM55 °FClear.9 mph77%29.77 "HgN/A
2:20 AM55 °FMostly cloudy.6 mph77%29.77 "HgN/A
1:50 AM55 °FOvercast.8 mph82%29.77 "HgN/A
1:20 AM55 °FOvercast.13 mph77%29.77 "HgN/A
12:50 AM55 °FPassing clouds.10 mph77%29.74 "HgN/A
12:20 AM55 °FMostly cloudy.10 mph77%29.77 "HgN/A
11:50 PM
Sat, Sep 24
55 °FOvercast.9 mph82%29.77 "HgN/A
11:20 PM55 °FOvercast.10 mph82%29.77 "HgN/A
Weather by CustomWeather, © 2016

See weather overviewHow to use our weather pages